[[{"header":{"parameterUnit":"m.s-1","parameterCategory":1,"la1":30.2992,"la2":30.254,"lo1":-89.0895,"lo2":-89.0443,"dy":0.0025,"dx":0.0025,"nx":19,"ny":19,"refTime":"2026-05-05T09:00:00:Z","depth":0,"parameterNumber":2,"parameterNumberName":"U-component_of_WINDS"},"data":[0,0,0,3.2944,3.2947,3.3049,3.3049,3.3191,3.3192,0,0,0,0,0,0,0,0,0,0,0,3.2921,3.2922,3.2944,3.2947,3.3049,3.3049,3.3191,3.3192,0,0,0,0,0,0,0,0,0,0,0,3.292,3.2922,3.2923,3.2947,3.3049,3.3049,3.319,3.3109,0,0,0,0,0,0,0,0,0,0,3.3008,3.2994,3.2921,3.2923,3.2948,3.3049,3.305,3.3105,3.3114,3.3149,0,3.3183,0,3.319,3.3203,3.3203,0,0,0,3.2941,3.2986,3.3007,3.2924,3.2949,3.3049,3.3001,3.311,3.3121,3.3162,3.3185,3.319,3.3192,3.3204,3.3204,3.3424,3.3425,0,0,3.2936,3.2943,3.3,3.3014,3.3,3.2998,3.3005,3.3116,3.3142,3.3185,3.3193,3.3195,3.3205,3.3206,3.3423,3.3424,0,0,0,3.2923,3.294,3.2958,3.3009,3.3026,3.3001,3.3009,3.3137,3.3142,3.3194,3.3196,3.3206,3.3207,3.3422,3.3424,3.3493,0,0,0,3.2919,3.2932,3.2955,3.2961,3.3025,3.3083,3.3027,3.3135,3.3147,3.3196,3.3206,3.3209,3.342,3.3423,3.3488,3.3525,0,0,0,3.2912,3.2931,3.2948,3.2961,3.3006,3.3081,3.3093,3.3137,3.3149,3.3203,3.3209,3.3419,3.3422,3.3484,3.3517,3.3583,0,0,0,3.2906,3.301,3.295,3.3066,3.3005,3.3124,3.3092,3.318,3.3236,3.3206,3.342,3.3423,3.3482,3.3513,3.3579,3.364,3.3666,0,0,3.3041,3.3026,3.3094,3.3043,3.3175,3.3108,3.3249,3.3293,3.3292,3.338,3.3385,3.349,3.3517,3.3582,3.3813,3.3834,0,0,0,3.3139,3.3188,3.3221,3.3274,3.331,3.3343,3.3364,3.338,3.3455,3.3339,3.3532,3.3548,3.3586,3.3614,3.3632,3.3664,3.3437,3.3437,3.3437,3.3341,3.3333,3.3444,3.3448,3.35,3.352,3.3561,3.3586,3.3563,3.3609,3.3635,3.3776,3.381,3.3823,3.3856,3.3667,3.3668,3.3668,3.3668,3.3537,3.3604,3.3571,3.3667,3.3657,3.3738,3.3761,3.3742,3.3814,3.3756,3.3789,3.3725,3.3847,3.3875,3.3673,3.3672,3.3672,3.3671,3.3671,3.3667,3.3697,3.3715,3.379,3.3848,3.3848,3.3919,3.3909,3.3899,3.3932,3.3957,3.3956,3.3952,3.3945,3.3945,3.3946,3.3946,3.3947,3.3947,3.3794,3.3812,3.3873,3.3919,3.3951,3.3991,3.4012,3.4042,3.4074,3.406,3.406,3.4032,3.386,3.3817,3.3955,3.3953,3.3952,3.3951,3.3951,3.3994,3.3947,3.4042,3.4073,3.4125,3.4183,3.4168,3.4232,3.4255,3.429,3.4255,3.4131,3.4115,3.41,3.4064,3.4258,3.4258,3.4258,3.4258,3.4103,3.4094,3.4187,3.4238,3.4287,3.4283,3.4389,3.4406,3.4415,3.4429,3.44,3.4351,3.4337,3.4329,3.431,3.4276,3.4519,3.4519,3.452,3.4224,3.4219,3.4312,3.4321,3.436,3.4394,3.4493,3.4552,3.4553,3.453,3.4439,3.4428,3.435,3.4325,3.4299,3.4269,3.4206,0,0]},{"header":{"parameterUnit":"m.s-1","parameterCategory":1,"la1":30.2992,"la2":30.254,"lo1":-89.0895,"lo2":-89.0443,"dy":0.0025,"dx":0.0025,"nx":19,"ny":19,"refTime":"2026-05-05T09:00:00:Z","depth":0,"parameterNumber":3,"parameterNumberName":"V-component_of_WINDS"},"data":[0,0,0,4.5531,4.5534,4.5688,4.5689,4.588,4.5882,0,0,0,0,0,0,0,0,0,0,0,4.5485,4.5487,4.5531,4.5535,4.5688,4.5689,4.588,4.5882,0,0,0,0,0,0,0,0,0,0,0,4.5485,4.5486,4.5488,4.5535,4.5688,4.5689,4.588,4.5765,0,0,0,0,0,0,0,0,0,0,4.5616,4.5574,4.5486,4.5488,4.5536,4.5688,4.5689,4.5759,4.5772,4.5809,0,4.5846,0,4.5867,4.5895,4.5896,0,0,0,4.5534,4.5564,4.5606,4.5488,4.5537,4.5688,4.5619,4.5766,4.5781,4.5826,4.5848,4.5856,4.587,4.5896,4.5897,4.6124,4.6125,0,0,4.5525,4.5512,4.5596,4.5615,4.5595,4.5614,4.5623,4.5775,4.5797,4.5849,4.586,4.5874,4.5897,4.5899,4.6123,4.6125,0,0,0,4.5501,4.5506,4.5545,4.5607,4.5636,4.5618,4.5629,4.579,4.5804,4.5862,4.5876,4.5899,4.5901,4.6122,4.6124,4.6168,0,0,0,4.5496,4.5492,4.5541,4.5534,4.5633,4.5716,4.5641,4.5794,4.5811,4.5875,4.5899,4.5903,4.6121,4.6123,4.6164,4.6191,0,0,0,4.5475,4.549,4.5513,4.5533,4.56,4.5714,4.5736,4.5798,4.582,4.5896,4.5903,4.612,4.6123,4.6161,4.6185,4.6248,0,0,0,4.5448,4.5548,4.5513,4.5629,4.5598,4.5741,4.5735,4.5841,4.5911,4.59,4.6121,4.6124,4.616,4.6182,4.6244,4.6298,4.632,0,0,4.5567,4.5562,4.5631,4.5604,4.575,4.5718,4.5869,4.5944,4.5961,4.6068,4.6074,4.6165,4.6185,4.6247,4.6444,4.6461,0,0,0,4.5664,4.5714,4.5755,4.5824,4.5885,4.5939,4.5993,4.6021,4.6113,4.6015,4.6205,4.6216,4.6253,4.628,4.6295,4.6327,4.6135,4.6135,4.6135,4.5813,4.5832,4.5948,4.5986,4.6051,4.6106,4.616,4.6206,4.6204,4.6248,4.6281,4.6399,4.6429,4.644,4.6474,4.631,4.6311,4.6311,4.6311,4.5989,4.6062,4.6059,4.6171,4.6189,4.6281,4.6336,4.6332,4.6419,4.6376,4.6409,4.6361,4.6459,4.6489,4.6314,4.6314,4.6313,4.6313,4.6313,4.6089,4.6128,4.6162,4.6263,4.6337,4.637,4.6455,4.6467,4.6479,4.6512,4.6547,4.6546,4.6547,4.6527,4.6528,4.6528,4.6529,4.6529,4.6529,4.618,4.6217,4.6289,4.6363,4.6408,4.6469,4.6525,4.6569,4.662,4.6622,4.6622,4.6615,4.6465,4.6427,4.6536,4.6535,4.6534,4.6533,4.6533,4.6353,4.6316,4.6427,4.6473,4.656,4.6633,4.6648,4.6737,4.6774,4.6815,4.6801,4.6688,4.6683,4.6671,4.664,4.6797,4.6797,4.6797,4.6797,4.6438,4.6437,4.6554,4.6626,4.6698,4.6723,4.6845,4.6888,4.6926,4.695,4.6928,4.6888,4.6875,4.6878,4.6862,4.6833,4.7035,4.7036,4.7036,4.6545,4.6552,4.6655,4.6695,4.6765,4.6823,4.6938,4.7018,4.7053,4.7046,4.6969,4.6959,4.6893,4.6871,4.6863,4.6838,4.6785,0,0]}]]